www.pogodaiklimat.ru

Погода и климат >> Архив погоды >> Австралия >> Северная территория >> Раббит Флат


ПОГОДА в Раббит Флат

  • Прогноз погоды в Раббит Флат
  • Монитор погоды в Раббит Флат

АРХИВ ПОГОДЫ в Раббит Флат

Время (UTC), дата Ветер
(напр.,м/с)
 
Видим.   Явления Облачность Т
(С)
Тd
(С)
f
(%)
Тe
(С)
Тes
(С)
Комфортность P
(гПа)
Po
(гПа)
Тmin
(С)
Tmax
(С)
R
(мм)
R24
(мм)
S
(см)
02 19.04 СВ 7 н/о н/о +33.2 +4.0 16 +31 +31 жарко 1014.6 976.2 +16.1
03 19.04 СВ 7 н/о н/о +33.3 +3.2 15 +30 +30 жарко 1013.7 975.4
05 19.04 В 5 н/о н/о +35.1 +2.6 13 +32 +32 жарко 1010.8 972.6
06 19.04 В 4 н/о н/о +34.8 +2.3 13 +32 +32 жарко 1010.4 972.3
08 19.04 СВ 3 н/о н/о +33.4 +2.3 14 +30 +30 жарко 1010.0 971.8
09 19.04 СВ 3 н/о н/о +32.5 +1.6 14 +29 +29 жарко 1010.2 972.1
11 19.04 В 2 н/о н/о +27.5 +2.6 20 +26 +26 жарко 1011.9 973.6
12 19.04 В 3 н/о н/о +27.7 +4.7 23 +26 +26 жарко 1012.0 973.7
14 19.04 В 2 н/о н/о +25.5 +5.7 28 +25 +25 комфорт 1012.2 973.9 +35.6
15 19.04 ЮВ 2 н/о н/о +25.3 +6.0 29 +25 +25 комфорт 1012.1 973.8
17 19.04 В 3 н/о н/о +27.1 +7.0 28 +27 +27 жарко 1011.6 973.3
18 19.04 В 3 н/о н/о +27.0 +6.4 27 +26 +26 жарко 1011.4 973.2
20 19.04 СВ 4 н/о н/о +26.7 +5.1 25 +26 +26 жарко 1012.1 973.8
21 19.04 СВ 4 н/о н/о +26.4 +4.8 25 +26 +26 жарко 1012.3 974.0
23 19.04 СВ 5 н/о н/о +28.0 +4.3 22 +27 +27 жарко 1014.0 975.7
00 20.04 СВ 7 н/о н/о +28.7 +4.9 22 +27 +27 жарко 1014.2 975.8
02 20.04 СВ 7 н/о н/о +34.2 +3.9 15 +31 +31 жарко 1012.7 974.4 +24.4
03 20.04 СВ 5 н/о н/о +33.6 +3.4 15 +31 +31 жарко 1012.3 974.0
05 20.04 С 4 н/о н/о +34.4 +3.1 14 +31 +31 жарко 1010.0 971.8
06 20.04 Ю 3 н/о н/о +34.9 +2.4 13 +32 +32 жарко 1009.6 971.5
08 20.04 ЮВ 4 н/о н/о +33.8 +1.6 13 +31 +31 жарко 1009.6 971.4
09 20.04 ЮВ 2 н/о н/о +32.8 +1.8 14 +30 +30 жарко 1009.7 971.6
11 20.04 В 3 н/о н/о +27.6 +4.0 22 +26 +26 жарко 1011.6 973.3
12 20.04 В 3 н/о н/о +27.0 +3.5 22 +26 +26 жарко 1011.8 973.5
14 20.04 Ю 1 н/о н/о +22.5 +3.6 29 +22 +22 комфорт 1011.3 973.1 +36.1
15 20.04 штиль 0 н/о н/о +21.6 +3.8 31 +22 +22 комфорт 1010.7 972.6
17 20.04 З 2 н/о н/о +20.2 +3.9 34 +21 +21 комфорт 1010.3 972.1
18 20.04 З 2 н/о н/о +19.9 +3.6 34 +21 +21 комфорт 1010.3 972.2
20 20.04 штиль 0 н/о н/о +18.1 +3.9 39 +18 +18 1011.4 973.2
21 20.04 СВ 2 н/о н/о +17.9 +4.1 40 +19 +19 1011.5 973.3
23 20.04 СВ 4 н/о н/о +29.0 +5.8 23 +28 +28 жарко 1012.9 974.6
00 21.04 СВ 5 н/о н/о +30.6 +5.8 21 +29 +29 жарко 1013.1 974.8
02 21.04 СВ 3 н/о н/о +34.2 +2.9 14 +31 +31 жарко 1012.6 974.3 +17.6
03 21.04 В 3 н/о н/о +34.3 +3.0 14 +31 +31 жарко 1012.2 973.9
05 21.04 ЮВ 4 н/о н/о +35.1 +1.5 12 +32 +32 жарко 1010.0 971.8
06 21.04 ЮВ 5 н/о н/о +35.9 +2.1 12 +33 +33 жарко 1009.9 971.8
08 21.04 ЮВ 3 н/о н/о +34.2 +1.9 13 +31 +31 жарко 1010.5 972.3
09 21.04 В 3 н/о н/о +33.2 +2.1 14 +30 +30 жарко 1010.7 972.6
11 21.04 В 3 н/о н/о +28.2 +3.1 20 +26 +26 жарко 1012.4 974.1
12 21.04 В 3 н/о н/о +27.9 +3.6 21 +26 +26 жарко 1012.7 974.4
14 21.04 В 1 н/о н/о +23.8 +2.6 25 +23 +23 комфорт 1012.3 974.0 +37.0
15 21.04 СВ 2 н/о н/о +23.4 +3.4 27 +23 +23 комфорт 1011.9 973.6
17 21.04 ЮВ 2 н/о н/о +22.7 +3.8 29 +23 +23 комфорт 1011.8 973.5
18 21.04 Ю 4 н/о н/о +21.8 +3.5 30 +22 +22 комфорт 1012.0 973.7
20 21.04 ЮВ 3 н/о н/о +20.1 +3.3 33 +21 +21 комфорт 1013.7 975.4
21 21.04 ЮВ 4 н/о н/о +20.1 +3.8 34 +21 +21 комфорт 1014.3 975.9
23 21.04 В 6 н/о н/о +25.2 +6.9 31 +25 +25 комфорт 1016.0 977.6
00 22.04 В 6 н/о н/о +26.3 +6.9 29 +26 +26 жарко 1016.1 977.7
02 22.04 В 6 н/о н/о +30.6 +5.8 21 +29 +29 жарко 1015.3 976.9 +19.4
03 22.04 СВ 6 н/о н/о +32.1 +5.6 19 +30 +30 жарко 1014.8 976.4
05 22.04 В 6 н/о н/о +34.2 +2.9 14 +31 +31 жарко 1012.2 973.9
06 22.04 В 6 н/о н/о +34.3 +1.9 13 +31 +31 жарко 1012.1 973.8
08 22.04 В 3 н/о н/о +32.9 +0.9 13 +30 +30 жарко 1012.6 974.3
09 22.04 В 4 н/о н/о +31.9 +1.1 14 +29 +29 жарко 1012.9 974.6
11 22.04 В 3 н/о н/о +25.7 +2.4 22 +24 +24 комфорт 1014.6 976.2
12 22.04 В 3 н/о н/о +26.0 +2.7 22 +25 +25 комфорт 1014.9 976.5
14 22.04 В 3 н/о н/о +23.4 +1.7 24 +23 +23 комфорт 1015.0 976.6 +34.8
15 22.04 В 3 н/о н/о +23.1 +2.6 26 +23 +23 комфорт 1014.8 976.4
17 22.04 В 4 н/о н/о +22.0 +3.6 30 +22 +22 комфорт 1014.8 976.4
18 22.04 ЮВ 3 н/о н/о +20.5 +3.7 33 +21 +21 комфорт 1014.9 976.5
20 22.04 СВ 2 н/о н/о +19.5 +5.9 41 +21 +21 комфорт 1015.7 977.3
21 22.04 штиль 0 н/о н/о +18.7 +6.2 44 +19 +19 1015.9 977.5
23 22.04 В 6 н/о н/о +24.4 +5.7 30 +24 +24 комфорт 1017.4 978.9
00 23.04 В 6 н/о н/о +26.1 +5.7 27 +25 +25 комфорт 1017.4 978.9
02 23.04 В 5 н/о н/о +32.1 +1.3 14 +29 +29 жарко 1016.1 977.7 +18.6
03 23.04 СВ 5 н/о н/о +32.5 +1.6 14 +29 +29 жарко 1015.5 977.1
05 23.04 Ю 6 н/о н/о +33.6 -0.9 11 +30 +30 жарко 1013.1 974.8
06 23.04 В 5 н/о н/о +33.1 -0.1 12 +30 +30 жарко 1012.9 974.6
08 23.04 ЮВ 4 н/о н/о +32.2 -0.8 12 +29 +29 жарко 1013.1 974.8
09 23.04 В 4 н/о н/о +31.2 -0.5 13 +28 +28 жарко 1013.5 975.2
11 23.04 В 4 н/о н/о +26.5 -0.5 17 +24 +24 комфорт 1015.3 976.9
12 23.04 В 3 н/о н/о +24.7 -0.4 19 +23 +23 комфорт 1015.4 977.0
14 23.04 ЮВ 3 н/о н/о +20.5 -0.2 25 +21 +21 комфорт 1015.9 977.5 +34.6
15 23.04 Ю 2 н/о н/о +19.2 -0.2 27 +20 +20 1016.0 977.6
17 23.04 ЮВ 2 н/о н/о +18.6 +1.2 31 +19 +19 1015.8 977.4
18 23.04 В 3 н/о н/о +19.3 +1.3 30 +20 +20 1015.5 977.1
20 23.04 В 4 н/о н/о +20.6 +2.0 29 +21 +21 комфорт 1016.4 978.0
21 23.04 В 4 н/о н/о +19.7 +2.1 31 +20 +20 1016.6 978.2
23 23.04 В 8 н/о н/о +25.5 +7.6 32 +26 +26 жарко 1017.8 979.3
00 24.04 В 8 н/о н/о +26.9 +7.4 29 +27 +27 жарко 1018.0 979.5
02 24.04 В 5 н/о н/о +30.8 +5.3 20 +29 +29 жарко 1016.7 978.3 +18.2
03 24.04 В 5 н/о н/о +31.5 +4.3 18 +29 +29 жарко 1016.1 977.7
05 24.04 ЮВ 7 н/о н/о +32.5 +2.5 15 +30 +30 жарко 1013.6 975.3
06 24.04 В 5 н/о н/о +32.3 +3.3 16 +30 +30 жарко 1013.2 974.9
08 24.04 ЮВ 5 н/о н/о +30.2 +3.3 18 +28 +28 жарко 1013.7 975.4
09 24.04 ЮВ 4 н/о н/о +29.3 +1.7 17 +27 +27 жарко 1014.1 975.7
11 24.04 В 3 н/о н/о +24.4 +3.1 25 +24 +24 комфорт 1015.9 977.5
12 24.04 В 3 н/о н/о +24.8 +2.3 23 +24 +24 комфорт 1015.9 977.5
14 24.04 В 3 н/о н/о +22.5 +3.1 28 +22 +22 комфорт 1015.4 977.0 +33.3
15 24.04 В 4 н/о н/о +22.3 +2.9 28 +22 +22 комфорт 1015.2 976.8
17 24.04 В 4 н/о н/о +21.0 +4.6 34 +22 +22 комфорт 1014.6 976.2
18 24.04 В 4 н/о н/о +20.6 +4.6 35 +21 +21 комфорт 1014.6 976.2
20 24.04 ЮВ 3 н/о н/о +18.6 +5.8 43 +19 +19 1015.6 977.2
21 24.04 ЮВ 4 н/о н/о +19.3 +6.1 42 +20 +20 1015.8 977.4
23 24.04 В 7 н/о н/о +24.3 +5.6 30 +24 +24 комфорт 1017.7 979.2
00 25.04 В 9 н/о н/о +25.1 +5.3 28 +25 +25 комфорт 1017.6 979.1
02 25.04 В 7 н/о н/о +28.6 +3.5 20 +27 +27 жарко 1015.9 977.5 +18.3
03 25.04 В 6 н/о н/о +29.2 +3.2 19 +27 +27 жарко 1015.5 977.1
05 25.04 В 6 н/о н/о +30.0 +0.6 15 +27 +27 жарко 1012.7 974.4
06 25.04 ЮВ 6 н/о н/о +30.4 -0.1 14 +27 +27 жарко 1012.4 974.1
08 25.04 ЮВ 5 н/о н/о +28.8 -0.4 15 +26 +26 жарко 1013.0 974.7
09 25.04 ЮВ 4 н/о н/о +28.0 -0.1 16 +26 +26 жарко 1013.1 974.8
11 25.04 ЮВ 2 н/о н/о +23.5 +0.6 22 +23 +23 комфорт 1014.8 976.4
12 25.04 ЮВ 2 н/о н/о +23.1 +0.2 22 +22 +22 комфорт 1014.8 976.4
14 25.04 ЮВ 2 н/о н/о +22.2 +1.3 25 +22 +22 комфорт 1014.6 976.2 +31.3
15 25.04 В 3 н/о н/о +21.9 +0.4 24 +21 +21 комфорт 1014.1 975.7
17 25.04 В 4 н/о н/о +22.2 -1.8 20 +21 +21 комфорт 1013.9 975.6
18 25.04 В 3 н/о н/о +21.0 -1.5 22 +21 +21 комфорт 1014.3 975.9
20 25.04 ЮВ 3 н/о н/о +19.0 +2.0 32 +19 +19 1015.0 976.6
21 25.04 ЮВ 3 н/о н/о +18.9 +2.3 33 +19 +19 1015.2 976.8
23 25.04 В 5 н/о н/о +23.6 +5.0 30 +23 +23 комфорт 1016.6 978.2
00 26.04 В 8 н/о н/о +24.5 +5.8 30 +24 +24 комфорт 1016.6 978.2

 

Местоположение метеостанции Раббит Флат (Северная территория, Австралия): широта -20.18 долгота 130.02 высота над уровнем моря 339 м.

В архиве по умолчанию представлена погода в Раббит Флат за последнюю неделю. Архивные данные за месяц целиком и за предыдущие месяцы, начиная с января 2011 года, Вы можете получить, выбрав интересующий диапазон дат из раскрывающегося списка и нажав кнопку "Ввод!".


*Определитесь, кто Вы:
робот инопланетянин человек

Внимание! Время в таблицах - всемирное. Для получения местного времени необходимо прибавить поправку, которая равна 9.5 ч.

Смотрите также архив погоды в соседних городах и на ближайших метеорологических станциях:

Погода в Ладжаману (Северная территория, Австралия) (216 км)
Погода в Холс Крик (Западная Австралия, Австралия) (329 км)
Погода в Кинторе (Северная территория, Австралия) (350 км)
Погода в Аэропорту Аргайл (Западная Австралия, Австралия) (428 км)
Погода в Виктория-Ривер (Северная территория, Австралия) (433 км)
Погода в Теннант-Крике (Северная территория, Австралия) (439 км)
Погода на Виноградной ферма (Северная территория, Австралия) (451 км)
Погода в Кунунарре (Западная Австралия, Австралия) (509 км)
Погода в Фицрой-Кроссинге (Западная Австралия, Австралия) (519 км)
Погода на Базе ВВС Delamere Weapons Range (Северная территория, Австралия) (532 км)

Пояснения к столбцам:

Ветер - указаны скорость ветра в м/с - средняя за 10 мин, порывы в срок и между сроками (в фигурных скобках) и направление, откуда дует ветер: С - северный, СВ - северо-восточный, В - восточный, ЮВ - юго-восточный, Ю - южный, ЮЗ - юго-западный, З - западный, СЗ - северо-западный.
Видимость - горизонтальная дальность видимости в метрах или километрах. При видимости от 1 до 10 км при отсутствии осадков обычно наблюдается дымка, при ухудшении видимости до 1 км и менее - туман. В сухую погоду видимость может ухудшаться дымом, пылью или мглою.
Явления - указаны атмосферные явления, наблюдавшиеся в срок или в последний час перед сроком; фигурными скобками обозначены явления, наблюдавшиеся между сроками (за 1-3 часа до срока); квадратными скобками обозначены град или гололедные отложения с указанием их диаметра в мм.
Облачность - указаны через наклонную черту общая и нижняя облачность в баллах и высота нижней границы облаков в метрах; квадратными скобками обозначены формы облаков: Ci - перистые, Cs - перисто-слоистые, Cc - перисто-кучевые, Ac - высококучевые, As - высокослоистые, Sc - слоисто-кучевые, Ns - слоисто-дождевые, Cu - кучевые, Cb - кучево-дождевые. Подробнее классификацию облаков см. в Атласе облаков (PDF).
T - Температура воздуха - температура, измеренная на высоте 2 м над землей.
Td - Температура точки росы - температура, при понижении до которой содержащийся в воздухе водяной пар достигнет насыщения.
f - Относительная влажность воздуха - влажноcть воздуха, измеренная на высоте 2 м над землей.
Te - Эффективная температура - температура, которую ощущает одетый по сезону человек в тени. Характеристика душности погоды. При расчете учитывается влияние влажности воздуха и скорости ветра на теплоощущения человека.
Tes - Эффективная температура на солнце - температура, которую ощущает человек, с поправкой на солнечный нагрев. Характеристика знойности погоды. Зависит от высоты солнца над горизонтом, облачности и скорости ветра. Ночью, в пасмурную погоду, а также при ветре 12 м/с и более поправка равна нулю.
P - Атмосферное давление - приведенное к уровню моря атмосферное давление.
Po - Атмосферное давление - измеренное на уровне метеостанции атмосферное давление.
Tmin - Минимальная температура - минимум температуры воздуха на высоте 2 м над землей.
Tmax - Максимальная температура - максимум температуры воздуха на высоте 2 м над землей.
R - Количество осадков - Количество выпавших осадков за период времени, мм. При наведении курсора мыши на число - период времени, за который выпало указанное количество осадков.
R24 - Количество осадков - Количество выпавших осадков за 24 часа, мм.
S - Снежный покров - Высота снежного покрова, см. При наведении курсора мыши на число - состояние снежного покрова и степень покрытия местности в баллах.